Temperature
15 15 15 15 15 15 15 15 16 17 17 16 16 15 15 15 15 15 15 15 15 15 15 15 15 15 15 15 15 15 16 16 16 15 15 15 15 15
15 15 15 15 15 15 15 15 15 15 16 16 15 15 15 15 15 14 14 15 15 15 15 15 15 15 15 15 15 15 15 15 15 15 15 15 15 15
14 14 14 14 14 14 14 14 15 15 15 15 15 15 14 14 14 14 14 14 14 15 15 15 15 15 15 15 15 15 15 15 15 15 15 15 15 15
14 14 14 14 14 14 14 14 14 14 14 14 14 14 14 14 13 14 14 14 14 14 14 15 15 15 15 15 15 15 15 15 15 15 15 15 15 15
14 14 14 14 13 13 13 13 14 14 14 14 14 14 14 14 13 13 14 14 14 14 14 14 14 14 14 14 14 14 14 14 15 15 15 15 15 15
13 13 13 13 13 13 13 13 13 13 13 13 14 14 14 13 13 14 14 14 14 14 14 14 14 14 14 14 14 14 14 14 14 14 14 15 14 14
13 13 13 13 13 13 13 13 13 13 13 13 13 13 13 13 13 13 14 13 13 14 14 14 14 14 14 14 14 14 14 14 14 14 14 14 14 14
13 13 13 13 13 13 13 13 13 12 12 13 13 13 13 13 13 13 13 13 13 14 13 13 14 14 14 14 14 14 14 14 14 14 14 14 14 14
13 13 13 13 13 12 13 13 12 12 12 12 12 12 12 12 12 12 12 12 13 13 13 13 13 13 14 14 13 13 14 14 14 14 14 14 14 14
12 12 12 12 12 12 12 12 12 12 12 12 12 12 12 12 12 12 12 12 12 12 12 13 13 13 13 13 13 13 13 13 13 13 13 13 13 13
12 12 12 12 12 12 12 11 11 12 12 12 12 12 12 12 12 11 11 12 12 12 12 12 13 13 13 13 13 13 13 13 13 13 13 13 13 13
12 12 12 12 12 12 11 11 11 11 11 11 12 12 11 12 11 11 11 11 12 12 12 12 12 12 12 13 13 12 12 12 12 13 13 13 13 12
12 12 12 12 12 11 11 11 11 11 11 11 11 11 11 11 11 11 11 11 11 12 12 11 12 12 12 12 12 12 12 12 12 12 12 12 12 12
11 11 11 11 11 11 11 11 11 11 11 11 11 11 11 11 11 11 11 11 11 11 11 11 11 11 11 12 12 12 12 12 12 12 12 12 12 12
11 11 11 11 11 11 11 11 11 11 11 11 11 11 11 11 11 11 10 10 10 10 10 10 10 11 11 11 11 11 11 11 11 11 11 11 11 11
11 11 11 11 11 11 11 11 11 10 10 11 11 11 11 10 10 10 10 10 10 10 10 10 10 10 10 11 11 11 11 11 11 11 11 11 11 11
10 10 11 11 11 11 10 10 10 10 10 10 10 10 10 10 10 10 10 10 10 10 10 10 10 10 10 10 10 10 10 11 10 10 10 10 11 11
10 10 10 10 10 10 10 10 10 10 10 10 10 10 10 10 9 9 9 10 10 10 10 10 10 10 10 10 10 10 10 10 10 10 10 10 10 10
10 10 10 10 10 10 10 10 10 10 9 9 9 9 9 9 9 9 9 9 9 9 10 9 9 9 9 10 9 10 10 10 10 10 10 10 10 10
10 10 10 10 9 9 9 9 9 9 9 9 9 9 9 9 9 9 9 9 9 9 9 9 9 9 9 9 9 9 9 9 9 10 10 10 10 10
10 10 10 9 9 9 9 9 9 9 9 9 9 9 9 9 9 9 9 8 8 9 9 9 9 9 9 9 9 9 9 9 9 9 9 9 9 9
10 10 9 9 9 9 8 8 8 8 8 8 8 8 8 8 8 8 8 8 8 8 8 8 8 8 9 9 8 8 9 8 8 9 9 9 9 9
9 9 9 9 9 8 8 8 8 8 8 8 8 8 8 8 8 8 8 8 8 8 8 8 8 8 8 8 8 8 8 8 8 8 8 8 9 9
Wind_Speed
2 2 3 2 3 3 4 4 5 6 4 2 3 3 3 2 1 3 4 5 7 8 8 8 7 8 8 9 10 11 12 12 13 15 17 18 19 19
2 3 3 3 3 3 4 4 5 6 6 4 3 3 3 4 2 4 5 5 9 10 10 9 9 9 9 9 10 11 11 11 11 12 15 17 18 18
3 3 3 4 4 3 3 4 4 4 6 6 4 3 3 5 4 5 6 6 6 10 10 10 11 11 10 10 11 11 11 11 12 12 13 15 15 15
4 3 4 3 4 4 4 5 4 4 6 7 6 5 4 5 5 6 6 6 6 6 10 11 12 12 12 12 12 12 12 12 12 12 13 12 12 13
4 4 4 4 5 4 5 5 5 5 5 6 7 5 5 5 5 6 7 6 8 6 9 11 12 12 13 13 13 13 12 12 12 13 13 12 12 11
4 4 5 5 5 6 5 5 5 6 5 6 7 6 5 5 5 6 6 6 7 7 6 7 9 13 14 14 14 14 13 13 13 13 12 12 11 11
3 4 4 4 5 5 5 5 5 5 5 6 6 6 6 5 6 6 7 7 6 6 7 7 7 8 9 13 14 14 13 13 13 12 11 11 11 11
4 4 4 3 4 4 5 5 6 6 7 7 7 7 7 7 6 7 7 7 7 5 6 7 6 7 6 7 7 9 11 12 12 11 11 11 11 11
4 4 4 3 3 4 4 6 7 8 8 8 9 9 8 7 8 9 7 8 8 6 6 8 7 7 6 4 6 7 9 10 10 10 10 10 10 10
4 4 4 4 4 5 6 6 6 6 7 8 9 9 9 8 8 9 9 8 8 7 7 8 7 7 6 4 6 8 10 10 10 10 10 10 10 10
3 3 4 4 4 5 6 7 7 6 6 6 7 8 8 8 8 8 8 8 8 7 6 7 7 6 5 5 5 9 11 11 10 10 10 10 10 10
3 2 1 2 4 5 5 6 7 7 7 6 6 7 8 8 8 8 8 8 8 7 5 5 6 5 5 5 4 4 7 9 10 10 11 10 10 8
4 3 2 1 3 5 7 6 7 8 7 7 6 6 5 5 5 6 7 7 8 7 5 4 6 6 5 5 4 3 3 3 5 6 9 11 11 8
5 4 3 3 4 6 5 5 8 9 6 6 5 5 5 5 5 5 5 6 7 8 7 6 6 6 6 6 5 4 3 3 3 3 4 8 10 11
4 4 5 5 5 5 4 6 7 5 5 5 5 5 5 5 5 5 5 6 7 7 6 6 7 7 6 6 6 5 4 3 3 4 4 4 5 5
4 4 5 6 5 4 4 4 3 4 5 5 5 5 5 4 4 4 4 5 5 5 4 5 6 7 6 6 6 5 5 4 3 3 3 4 4 5
5 5 4 3 4 3 4 4 4 4 4 4 5 5 5 4 4 4 5 5 5 5 5 3 3 4 5 6 5 5 4 4 3 3 3 3 3 4
6 5 4 5 5 5 5 5 5 4 4 4 5 5 5 5 4 4 4 5 5 4 4 3 2 3 3 2 3 4 3 3 2 3 3 3 3 2
5 5 5 5 6 6 6 6 6 5 5 5 4 5 5 5 4 4 5 5 5 4 4 3 2 3 3 4 2 2 3 2 2 2 3 3 3 2
4 4 5 5 5 6 6 6 6 6 5 5 5 5 5 5 5 4 4 5 5 4 4 3 3 3 4 4 3 1 2 3 3 3 2 2 2 1
5 5 5 5 5 5 6 6 6 6 6 6 5 5 5 6 5 5 5 4 5 5 5 4 3 2 3 2 2 2 1 2 2 3 3 3 3 3
5 5 5 5 5 5 5 6 6 6 6 6 5 5 5 5 6 6 5 5 4 5 5 4 2 2 2 2 3 3 2 1 2 2 1 2 3 2
5 6 6 6 5 5 5 6 7 7 6 6 6 5 5 5 5 5 5 4 4 4 5 4 3 2 2 2 2 3 2 2 2 2 1 2 2 2
Wind_Direction
279 267 272 281 285 290 285 281 283 287 283 261 271 280 288 278 242 252 252 205 220 229 235 239 245 247 242 236 230 227 226 227 227 227 226 227 228 228
285 295 285 287 286 281 282 279 280 285 292 299 284 291 315 296 242 267 262 221 221 224 230 235 240 243 240 236 229 226 225 226 228 230 229 227 229 230
276 275 276 287 291 290 284 279 277 277 279 287 290 301 295 289 292 280 266 256 238 213 222 231 236 239 239 237 229 228 228 229 229 231 232 230 227 224
286 289 289 284 281 282 284 280 279 277 274 283 290 289 283 279 280 278 277 268 269 213 213 227 232 234 236 235 231 229 229 232 233 232 233 227 223 222
284 285 288 290 283 281 276 278 279 274 276 278 281 288 282 285 283 274 275 278 275 250 218 221 224 229 233 232 230 229 230 232 233 231 226 224 222 220
282 282 286 286 283 282 277 275 276 279 274 272 279 282 280 284 282 281 276 264 269 275 267 249 228 225 228 228 227 226 228 231 231 225 223 222 222 222
285 284 285 286 294 286 288 290 284 277 277 275 277 280 281 287 281 282 284 284 271 272 272 260 242 240 228 226 224 223 226 226 222 220 222 221 221 222
296 296 288 276 278 259 271 283 284 275 280 281 277 280 282 281 285 284 285 283 279 272 270 268 259 255 247 240 209 208 218 214 213 215 217 217 215 215
298 299 302 316 307 293 268 254 259 257 264 273 279 282 284 283 284 277 276 281 282 289 280 271 266 261 255 237 182 202 210 207 211 211 211 211 211 211
295 297 299 308 319 312 296 290 280 270 259 257 270 279 285 291 287 279 280 274 269 268 269 272 268 265 266 245 183 194 197 199 205 208 210 210 210 209
296 303 303 306 348 324 296 294 292 288 264 252 264 276 288 289 289 285 278 273 272 269 257 264 271 267 262 254 211 189 186 189 195 199 202 204 206 207
297 295 338 324 343 318 292 292 291 293 299 291 265 260 265 260 248 261 275 277 278 277 275 267 272 267 262 256 254 222 198 188 191 194 195 199 203 214
304 304 336 79 307 298 288 289 293 296 292 287 281 274 273 274 264 255 261 270 277 274 284 272 273 267 263 270 265 258 241 225 209 202 195 194 195 203
304 313 340 355 297 286 284 288 289 287 285 288 287 288 289 288 283 276 269 269 275 278 290 291 281 277 270 269 272 273 258 247 243 238 219 187 192 197
310 332 315 289 275 268 250 261 272 285 295 294 295 296 296 299 294 284 274 265 265 271 273 272 273 273 265 262 263 261 262 253 240 233 222 210 204 202
298 282 245 250 258 284 283 273 285 304 299 297 300 302 305 303 297 295 288 282 283 282 271 267 265 264 261 258 255 256 254 251 235 231 234 232 221 215
316 295 297 304 307 312 312 313 312 309 303 304 302 305 310 312 310 306 298 293 288 294 299 290 266 257 260 263 253 252 245 239 230 222 229 236 239 230
301 297 305 308 308 313 315 314 309 309 307 303 305 308 309 307 306 305 301 298 300 299 302 304 308 286 272 273 269 249 245 245 237 222 223 225 244 244
284 300 305 306 308 309 312 314 315 316 310 301 305 305 305 305 306 306 307 302 297 296 297 294 295 279 268 273 269 236 242 251 242 233 241 243 249 257
293 303 302 303 307 309 312 314 313 311 308 303 300 301 301 302 304 304 307 308 303 303 302 302 294 277 266 271 281 280 215 247 246 236 236 245 248 169
305 305 306 307 309 310 313 313 312 309 310 304 301 299 299 300 303 308 307 305 303 306 304 305 312 276 263 258 259 258 231 213 256 254 249 241 235 225
315 315 316 315 315 313 310 308 309 309 305 297 301 300 295 296 298 300 303 303 304 305 302 303 303 288 255 230 242 248 243 196 151 119 18 313 277 251
314 316 318 318 318 317 315 314 313 311 308 304 301 298 296 292 291 290 289 292 300 303 303 305 304 289 268 253 244 243 236 218 200 182 166 135 155 147
Height
1507 1507 1507 1508 1508 1507 1507 1507 1508 1505 1504 1504 1504 1503 1502 1501 1500 1499 1499 1498 1498 1498 1497 1497 1497 1497 1497 1497 1497 1497 1498 1499 1500 1501 1502 1504 1505 1506
1505 1505 1505 1505 1505 1505 1505 1505 1505 1504 1503 1502 1502 1501 1499 1498 1497 1496 1495 1494 1494 1494 1494 1493 1493 1493 1493 1493 1493 1493 1494 1494 1495 1496 1497 1498 1499 1500
1503 1503 1503 1502 1503 1503 1503 1502 1502 1501 1500 1500 1500 1498 1496 1495 1494 1493 1492 1491 1491 1490 1490 1489 1489 1489 1489 1489 1489 1489 1490 1490 1490 1491 1492 1492 1493 1494
1501 1500 1500 1500 1500 1499 1499 1499 1499 1498 1498 1496 1496 1495 1494 1492 1491 1490 1489 1489 1488 1487 1486 1485 1485 1484 1484 1485 1485 1485 1485 1486 1486 1486 1487 1488 1489 1490
1499 1498 1498 1497 1496 1497 1496 1496 1495 1495 1494 1493 1492 1492 1491 1490 1488 1487 1486 1485 1484 1484 1482 1481 1480 1480 1480 1480 1480 1480 1481 1481 1482 1482 1483 1484 1484 1486
1496 1495 1495 1494 1493 1493 1493 1492 1492 1491 1491 1490 1489 1488 1487 1487 1485 1484 1483 1482 1481 1480 1479 1477 1476 1476 1475 1475 1475 1475 1476 1476 1477 1478 1479 1480 1481 1482
1494 1493 1492 1491 1490 1490 1490 1489 1488 1488 1487 1486 1486 1485 1484 1483 1482 1481 1479 1478 1477 1476 1475 1474 1473 1472 1471 1470 1470 1470 1470 1471 1472 1473 1474 1475 1476 1478
1491 1490 1490 1488 1487 1486 1486 1485 1485 1484 1484 1483 1482 1481 1480 1480 1479 1478 1476 1475 1473 1473 1471 1470 1469 1468 1467 1467 1465 1465 1465 1466 1467 1468 1469 1470 1472 1474
1489 1488 1488 1487 1485 1484 1483 1482 1481 1480 1480 1480 1479 1477 1477 1476 1475 1474 1472 1471 1469 1469 1467 1466 1465 1464 1463 1462 1461 1461 1461 1462 1463 1464 1465 1466 1467 1469
1486 1485 1484 1483 1482 1481 1480 1479 1478 1477 1476 1475 1474 1473 1472 1471 1470 1470 1468 1467 1465 1464 1463 1462 1461 1460 1460 1459 1457 1456 1457 1457 1459 1460 1460 1462 1463 1465
1485 1483 1482 1481 1480 1478 1477 1476 1474 1473 1473 1471 1470 1468 1467 1466 1465 1465 1464 1464 1461 1460 1459 1459 1457 1457 1455 1455 1454 1453 1453 1454 1454 1455 1457 1458 1459 1460
1482 1481 1480 1478 1477 1475 1474 1473 1471 1470 1469 1468 1466 1464 1463 1461 1460 1460 1460 1459 1458 1456 1455 1455 1454 1453 1452 1451 1451 1450 1450 1450 1451 1452 1453 1454 1455 1456
1481 1480 1478 1476 1474 1472 1471 1470 1468 1467 1466 1464 1463 1461 1459 1458 1457 1456 1455 1455 1454 1453 1452 1451 1450 1450 1449 1448 1448 1447 1447 1447 1448 1448 1449 1450 1451 1452
1478 1477 1475 1473 1471 1470 1468 1466 1465 1463 1463 1461 1460 1458 1457 1455 1454 1452 1451 1450 1449 1449 1448 1447 1447 1446 1445 1444 1444 1444 1445 1445 1445 1446 1447 1447 1448 1448
1476 1474 1472 1470 1469 1467 1465 1463 1462 1461 1460 1458 1457 1455 1454 1452 1451 1449 1447 1446 1445 1444 1443 1442 1442 1442 1442 1441 1441 1441 1441 1441 1442 1442 1443 1444 1445 1445
1473 1472 1470 1468 1466 1464 1463 1461 1459 1458 1457 1455 1454 1452 1451 1449 1447 1446 1445 1444 1442 1441 1439 1438 1437 1438 1438 1437 1437 1437 1438 1438 1439 1439 1440 1441 1441 1442
1471 1470 1469 1467 1465 1463 1461 1459 1457 1455 1454 1453 1451 1449 1448 1446 1445 1443 1442 1441 1439 1437 1435 1434 1434 1434 1434 1434 1434 1434 1434 1435 1436 1436 1436 1437 1438 1438
1469 1469 1467 1465 1463 1461 1459 1457 1455 1453 1451 1450 1448 1447 1445 1443 1441 1440 1438 1437 1435 1434 1432 1431 1431 1430 1430 1430 1430 1430 1431 1432 1433 1433 1434 1434 1434 1435
1467 1466 1465 1463 1461 1458 1457 1454 1452 1451 1448 1447 1446 1444 1442 1441 1439 1437 1436 1434 1432 1431 1430 1429 1428 1428 1427 1427 1427 1428 1428 1429 1430 1430 1431 1431 1431 1432
1465 1464 1462 1460 1458 1456 1454 1452 1450 1448 1446 1444 1443 1442 1440 1438 1437 1435 1433 1432 1430 1428 1427 1426 1425 1425 1424 1425 1425 1425 1426 1426 1427 1428 1428 1429 1429 1429
1463 1461 1459 1458 1455 1453 1451 1449 1447 1445 1443 1442 1440 1439 1437 1436 1434 1433 1431 1429 1428 1426 1425 1424 1423 1422 1422 1423 1423 1423 1424 1424 1424 1425 1426 1426 1427 1427
1461 1459 1457 1455 1453 1450 1448 1446 1444 1442 1440 1439 1437 1436 1434 1433 1432 1430 1429 1427 1426 1425 1423 1423 1422 1421 1421 1421 1421 1421 1422 1422 1422 1423 1424 1424 1424 1425
1458 1456 1454 1452 1450 1448 1445 1443 1441 1439 1437 1435 1434 1432 1431 1430 1429 1428 1426 1425 1424 1423 1422 1421 1421 1420 1420 1420 1420 1420 1420 1420 1421 1421 1422 1422 1422 1422